Weather in Chernukha

Russia / Nizhny Novgorod Oblast'     55°36′02″N   43°46′29″E
temp.,
°C
wind,
m/s
gust,
m/s
humid.,
%
clouds,
%
prec.,
mm/h
press.,
hPa
HPBL,
m
16 april, fri
fri1600:00+11ne5107893 0.0 1019220
03:00+9ne51296100 0.0 1020368
06:00+9ene61188100 0.0 1020495
09:00+9ene61183100 0.0 1021586
12:00+12e697692 0.0 1022731
15:00+16e686192 0.0 10221089
18:00+14ene6116895 0.0 1022768
21:00+11ene6137978 0.0 1023514
17 april, sat
sat1700:00+8ene51381100 0.0 1024443
03:00+6ene5128382 0.0 1025376
06:00+5ene5137875 0.0 1025390
09:00+9e6116718 0.0 1025536
12:00+13e79567 0.0 1024881
15:00+14e68525 0.0 10241166
18:00+12ene6115435 0.0 1023738
21:00+8e514545 0.0 1024457
18 april, sun
sun1800:00+6e514605 0.0 1024442
03:00+5ene5137080 0.0 1025408
06:00+4ene51471100 0.0 1024461
09:00+8e61260100 0.0 1024721
12:00+11e6946100 0.0 10231196
15:00+12e5946100 0.0 10231596
18:00+10ese3760100 0.0 1023426
21:00+6ssw1187100 0.1 102597
19 april, mon
mon1900:00+7e51077100 0.5 1026833
03:00+5e51083100 0.7 1026643
06:00+4ene61277100 0.2 1027531
09:00+4e61267100 0.3 1028642
12:00+8e695894 0.0 10281101
15:00+11e784812 0.0 10281483
18:00+9e6105017 0.0 10281124
21:00+5e6136097 0.0 1029609
20 april, tue
tue2000:00+4e5136824 0.0 1028569
03:00+2e614755 0.0 1028526
06:00+2e61478100 0.0 1027618
09:00+6ese8136720 0.0 1025871
12:00+9ese71361100 0.0 10241041
15:00+9ese91557100 0.0 10221063
18:00+8se81659100 0.0 10211053
21:00+7se81766100 0.3 10201022